User: anonymous   Login
Location: Unspecified
(0.0000°N, 0.0000°E)
Time: 20:48:38
(UTC+00:00)
Language:

TIANMU-1 12 - Orbit

View from above orbital plane
View from above orbital plane
View from above satellite
View from above satellite

Ground track
Ground track

The orbit is defined by the following mean orbital elements,

1 58646U          26145.61008543 +.00000000 +00000-0 +21341-3 0 00001
2 58646  97.3450 167.2855 0009014  73.6943 286.5287 15.26677038    02
Epoch (UTC): 25 May 2026 14:38:31
Eccentricity: 0.0009014
inclination: 97.3450°
perigee height: 480 km
apogee height: 492 km
right ascension of ascending node: 167.2855°
argument of perigee: 73.6943°
revolutions per day: 15.26677038
mean anomaly at epoch: 286.5287°

The dashed part of the orbit path shows where the satellite is in the earth's shadow,  

DLR